This is the latest recevied weather packets stored in our database for station/object K5WNG. If no packets are shown the sender has not sent any weather packets the latest 10 day(s).
| Time | Temp. | Humidity | Pressure | Rain* | Wind** | Luminosity | Snow |
|---|---|---|---|---|---|---|---|
| 1777911917 | 23.89° C | 68% | 1014.1 hPa | 0 mm | - | 696 W/m² | - |
| 1777911620 | 23.89° C | 68% | 1014.2 hPa | 0 mm | - | 717 W/m² | - |
| 1777911322 | 23.89° C | 68% | 1014.3 hPa | 0 mm | - | 697 W/m² | - |
| 1777911021 | 23.33° C | 68% | 1014.3 hPa | 0 mm | - | 820 W/m² | - |
| 1777910718 | 22.78° C | 70% | 1014.5 hPa | 0 mm | - | 754 W/m² | - |
| 1777910421 | 22.78° C | 70% | 1014.6 hPa | 0 mm | - | 574 W/m² | - |
| 1777910122 | 22.22° C | 70% | 1014.6 hPa | 0 mm | - | 561 W/m² | - |
| 1777909818 | 22.22° C | 71% | 1014.5 hPa | 0 mm | - | 646 W/m² | - |
| 1777909517 | 22.22° C | 71% | 1014.4 hPa | 0 mm | - | 645 W/m² | - |
| 1777909221 | 22.22° C | 71% | 1014.5 hPa | 0 mm | - | 460 W/m² | - |
| 1777908921 | 22.22° C | 72% | 1014.5 hPa | 0 mm | - | 531 W/m² | - |
| 1777908618 | 22.22° C | 71% | 1014.5 hPa | 0 mm | - | 409 W/m² | - |
| 1777908318 | 22.78° C | 70% | 1014.7 hPa | 0 mm | - | 553 W/m² | - |
| 1777908018 | 22.22° C | 70% | 1014.7 hPa | 0 mm | - | 560 W/m² | - |
| 1777907718 | 22.22° C | 71% | 1014.6 hPa | 0 mm | - | 651 W/m² | - |
| 1777907418 | 21.67° C | 71% | 1014.6 hPa | 0 mm | - | 653 W/m² | - |
| 1777907115 | 21.67° C | 71% | 1014.7 hPa | 0 mm | - | 522 W/m² | - |
| 1777906819 | 21.67° C | 72% | 1014.7 hPa | 0 mm | - | 595 W/m² | - |
| 1777906519 | 21.11° C | 73% | 1014.8 hPa | 0 mm | - | 608 W/m² | - |
| 1777906216 | 21.11° C | 73% | 1014.9 hPa | 0 mm | - | 472 W/m² | - |
| 1777905919 | 20.56° C | 73% | 1014.9 hPa | 0 mm | - | 378 W/m² | - |
| 1777905619 | 20.56° C | 74% | 1014.8 hPa | 0 mm | - | 433 W/m² | - |
| 1777905316 | 20° C | 75% | 1014.8 hPa | 0 mm | - | 376 W/m² | - |
| 1777905019 | 20° C | 75% | 1014.8 hPa | 0 mm | - | 249 W/m² | - |
| 1777904716 | 19.44° C | 76% | 1014.7 hPa | 0 mm | - | 196 W/m² | - |
* Rain latest hour (hover to see other rain measurements)
** Current wind speed in m/s (hover to see current wind gust speed)